Bennettsville, SC

11:19 AM EDT on April 23, 2017 (GMT -0400)
Marlboro County-Avent

Weather History for KBBP - August, 2013

Change the Weather History Date:

Tuesday, August 6, 2013

  Actual Average (KFLO) Record (KFLO)
Temperature  
Mean Temperature 73 °F -  
Max Temperature 78 °F 89 °F 102 °F (2007)
Min Temperature 68 °F 71 °F 59 °F (1948)
Cooling Degree Days 8    
Growing Degree Days 23 (Base 50)    
Moisture  
Dew Point 64 °F    
Average Humidity 71    
Maximum Humidity 83    
Minimum Humidity 57    
Precipitation  
Precipitation 0.05 in - - ()
Sea Level Pressure  
Sea Level Pressure 30.05 in    
Wind  
Wind Speed 2 mph (East)    
Max Wind Speed 6 mph    
Max Gust Speed -    
Visibility 10 miles    
Events Rain    
Averages and records for this station are not official NWS values.
T = Trace of Precipitation, MM = Missing Value Source: NWS Daily Summary

Daily Weather History Graph

Daily Weather History Graph

Search for Another Location

Airport or City:

Trip Planner

Search our weather history database for the weather conditions in past years. The results will help you decide how hot, cold, wet, or windy it might be!

Date:

Astronomy

Aug. 06, 2013 Rise Set
Actual Time 6:33 AM EDT 8:16 PM EDT
Civil Twilight 6:05 AM EDT 8:43 PM EDT
Nautical Twilight 5:32 AM EDT 9:16 PM EDT
Astronomical Twilight 4:57 AM EDT 9:50 PM EDT
Moon 6:20 AM EDT (8/6) 7:53 PM EDT (8/6)
Length of Visible Light 14h 37m
Length of Day
13h 43m
Waning Crescent, 0% of the Moon is Illuminated
Aug 6
Waning Crescent
Aug 6
New
Aug 14
First Quarter
Aug 20
Full
Aug 28
Last Quarter

Hourly Weather History & Observations

Time (EDT) Temp. Dew Point Humidity Pressure Visibility Wind Dir Wind Speed Gust Speed Precip Events Conditions
12:15 AM 75.2 °F 59.0 °F 57% 30.04 in 10.0 mi South 5.8 mph - N/A   Clear
12:35 AM 73.4 °F 59.0 °F 61% 30.04 in 10.0 mi SE 3.5 mph - N/A   Clear
12:55 AM 73.4 °F 59.0 °F 61% 30.04 in 10.0 mi SSE 3.5 mph - N/A   Clear
1:15 AM 73.4 °F 59.0 °F 61% 30.04 in 10.0 mi Calm Calm - N/A   Clear
1:35 AM 71.6 °F 60.8 °F 69% 30.04 in 10.0 mi Calm Calm - N/A   Clear
1:55 AM 73.4 °F 60.8 °F 65% 30.03 in 10.0 mi Calm Calm - N/A   Clear
2:15 AM 71.6 °F 60.8 °F 69% 30.03 in 10.0 mi Calm Calm - N/A   Clear
2:35 AM 71.6 °F 60.8 °F 69% 30.03 in 10.0 mi Calm Calm - N/A   Mostly Cloudy
2:55 AM 71.6 °F 60.8 °F 69% 30.03 in 10.0 mi Calm Calm - N/A   Scattered Clouds
3:15 AM 71.6 °F 60.8 °F 69% 30.01 in 10.0 mi Calm Calm - N/A   Scattered Clouds
3:35 AM 71.6 °F 60.8 °F 69% 30.01 in 10.0 mi ESE 3.5 mph - N/A   Clear
3:55 AM 71.6 °F 60.8 °F 69% 30.00 in 10.0 mi Calm Calm - N/A   Mostly Cloudy
4:15 AM 71.6 °F 60.8 °F 69% 30.00 in 10.0 mi Calm Calm - N/A   Scattered Clouds
4:35 AM 71.6 °F 60.8 °F 69% 30.00 in 10.0 mi Calm Calm - N/A   Clear
4:55 AM 69.8 °F 60.8 °F 73% 29.99 in 10.0 mi Calm Calm - N/A   Clear
5:15 AM 69.8 °F 60.8 °F 73% 29.99 in 10.0 mi Calm Calm - N/A   Clear
5:35 AM 69.8 °F 60.8 °F 73% 30.00 in 10.0 mi Calm Calm - N/A   Scattered Clouds
5:55 AM 68.0 °F 62.6 °F 83% 30.01 in 10.0 mi Calm Calm - N/A   Scattered Clouds
6:15 AM 69.8 °F 62.6 °F 78% 30.01 in 10.0 mi Calm Calm - N/A   Scattered Clouds
6:35 AM 71.6 °F 62.6 °F 73% 30.01 in 10.0 mi Calm Calm - N/A   Mostly Cloudy
6:55 AM 69.8 °F 62.6 °F 78% 30.02 in 10.0 mi Calm Calm - N/A   Scattered Clouds
7:15 AM 69.8 °F 62.6 °F 78% 30.02 in 10.0 mi Calm Calm - N/A   Scattered Clouds
7:35 AM 71.6 °F 62.6 °F 73% 30.03 in 10.0 mi Calm Calm - N/A   Mostly Cloudy
7:55 AM 71.6 °F 62.6 °F 73% 30.03 in 10.0 mi Calm Calm - N/A   Mostly Cloudy
8:15 AM 73.4 °F 60.8 °F 65% 30.04 in 10.0 mi Calm Calm - N/A   Mostly Cloudy
8:35 AM 73.4 °F 62.6 °F 69% 30.05 in 10.0 mi NE 3.5 mph - N/A   Overcast
8:55 AM 73.4 °F 60.8 °F 65% 30.06 in 10.0 mi NNE 4.6 mph - N/A   Overcast
9:15 AM 73.4 °F 60.8 °F 65% 30.05 in 10.0 mi ENE 3.5 mph - N/A   Overcast
9:35 AM 73.4 °F 60.8 °F 65% 30.06 in 10.0 mi NNE 3.5 mph - N/A   Overcast
9:55 AM 75.2 °F 62.6 °F 65% 30.07 in 10.0 mi NNE 3.5 mph - N/A   Mostly Cloudy
10:15 AM 75.2 °F 60.8 °F 61% 30.08 in 10.0 mi Calm Calm - N/A   Mostly Cloudy
10:35 AM 75.2 °F 62.6 °F 65% 30.07 in 10.0 mi Calm Calm - N/A Rain Light Rain
10:55 AM 73.4 °F 64.4 °F 73% 30.07 in 10.0 mi Calm Calm - N/A Rain Light Rain
11:15 AM 73.4 °F 66.2 °F 78% 30.08 in 10.0 mi Calm Calm - N/A Rain Light Rain
11:35 AM 73.4 °F 64.4 °F 73% 30.08 in 10.0 mi Calm Calm - N/A Rain Light Rain
11:55 AM 73.4 °F 66.2 °F 78% 30.08 in 7.0 mi NW 3.5 mph - 0.01 in Rain Light Rain
12:15 PM 73.4 °F 68.0 °F 83% 30.09 in 7.0 mi NNW 4.6 mph - N/A Rain Light Rain
12:35 PM 73.4 °F 68.0 °F 83% 30.08 in 7.0 mi Calm Calm - 0.01 in Rain Rain
12:55 PM 73.4 °F 68.0 °F 83% 30.08 in 7.0 mi Calm Calm - 0.02 in Rain Light Rain
1:15 PM 73.4 °F 68.0 °F 83% 30.08 in 7.0 mi Calm Calm - N/A Rain Light Rain
1:35 PM 75.2 °F 64.4 °F 69% 30.08 in 10.0 mi North 4.6 mph - N/A Rain Light Rain
1:55 PM 75.2 °F 64.4 °F 69% 30.07 in 10.0 mi Calm Calm - 0.01 in Rain Light Rain
2:15 PM 77.0 °F 64.4 °F 65% 30.07 in 7.0 mi Calm Calm - N/A Rain Light Rain
2:35 PM 77.0 °F 68.0 °F 74% 30.07 in 7.0 mi West 3.5 mph - 0.01 in Rain Light Rain
2:55 PM 75.2 °F 66.2 °F 73% 30.06 in 10.0 mi Calm Calm - 0.01 in   Light Drizzle
3:15 PM 77.0 °F 68.0 °F 74% 30.07 in 10.0 mi Calm Calm - N/A   Light Drizzle
3:35 PM 77.0 °F 64.4 °F 65% 30.06 in 10.0 mi Calm Calm - N/A   Clear
3:55 PM 78.8 °F 64.4 °F 61% 30.05 in 10.0 mi Calm Calm - N/A   Clear
4:15 PM 78.8 °F 64.4 °F 61% 30.05 in 10.0 mi NE 3.5 mph - N/A   Scattered Clouds
4:35 PM 78.8 °F 64.4 °F 61% 30.05 in 10.0 mi ENE 4.6 mph - N/A   Overcast
4:55 PM 78.8 °F 64.4 °F 61% 30.05 in 10.0 mi East 3.5 mph - N/A   Overcast
5:15 PM 78.8 °F 64.4 °F 61% 30.05 in 10.0 mi Calm Calm - N/A   Overcast
5:35 PM 78.8 °F 64.4 °F 61% 30.04 in 10.0 mi Calm Calm - N/A   Overcast
5:55 PM 78.8 °F 66.2 °F 65% 30.05 in 10.0 mi Calm Calm - N/A   Mostly Cloudy
6:15 PM 78.8 °F 68.0 °F 69% 30.04 in 10.0 mi Calm Calm - N/A   Scattered Clouds
6:35 PM 78.8 °F 68.0 °F 69% 30.04 in 10.0 mi Calm Calm - N/A Rain Rain
6:55 PM 77.0 °F 69.8 °F 78% 30.04 in 10.0 mi Calm Calm - N/A   Mostly Cloudy
7:15 PM 78.8 °F 68.0 °F 69% 30.05 in 10.0 mi Calm Calm - N/A   Mostly Cloudy
7:35 PM 77.0 °F 69.8 °F 78% 30.05 in 10.0 mi Calm Calm - N/A   Overcast
7:55 PM 77.0 °F 69.8 °F 78% 30.05 in 10.0 mi Calm Calm - N/A   Mostly Cloudy
8:15 PM 77.0 °F 66.2 °F 69% 30.05 in 10.0 mi Calm Calm - N/A   Mostly Cloudy
8:35 PM 77.0 °F 68.0 °F 74% 30.05 in 10.0 mi Calm Calm - N/A   Scattered Clouds
8:55 PM 77.0 °F 68.0 °F 74% 30.05 in 10.0 mi Calm Calm - N/A   Scattered Clouds
9:15 PM 75.2 °F 68.0 °F 78% 30.04 in 10.0 mi ESE 3.5 mph - N/A   Clear
9:35 PM 73.4 °F 68.0 °F 83% 30.05 in 10.0 mi East 3.5 mph - N/A   Scattered Clouds
9:55 PM 73.4 °F 68.0 °F 83% 30.05 in 10.0 mi East 4.6 mph - N/A   Mostly Cloudy
10:15 PM 75.2 °F 68.0 °F 78% 30.06 in 10.0 mi East 3.5 mph - N/A   Overcast
10:35 PM 77.0 °F 68.0 °F 74% 30.06 in 10.0 mi East 4.6 mph - N/A   Overcast
10:55 PM 75.2 °F 68.0 °F 78% 30.07 in 10.0 mi ESE 4.6 mph - N/A   Overcast
11:15 PM 75.2 °F 68.0 °F 78% 30.07 in 10.0 mi SE 3.5 mph - N/A   Scattered Clouds
11:35 PM 75.2 °F 68.0 °F 78% 30.07 in 10.0 mi SE 3.5 mph - N/A   Mostly Cloudy
11:55 PM 75.2 °F 66.2 °F 73% 30.07 in 10.0 mi ESE 3.5 mph - N/A   Scattered Clouds